This is the latest recevied weather packets stored in our database for station/object K8BCO. If no packets are shown the sender has not sent any weather packets the latest 1 day(s).
| Time | Temp. | Humidity | Pressure | Rain* | Wind** | Luminosity | Snow |
|---|---|---|---|---|---|---|---|
| 1777988116 | 5° C | 66% | 1003.5 hPa | 0 mm | 1.79 m/s, 276° | 201 W/m² | - |
| 1777987516 | 5° C | 64% | 1003.4 hPa | 0 mm | 1.34 m/s, 312° | 153 W/m² | - |
| 1777986916 | 5° C | 65% | 1003.2 hPa | 0 mm | 0.89 m/s, 345° | 252 W/m² | - |
| 1777986319 | 5° C | 66% | 1003.2 hPa | 0 mm | 0.89 m/s, 293° | 167 W/m² | - |
| 1777985719 | 4.44° C | 68% | 1003.2 hPa | 0 mm | 1.34 m/s, 290° | 178 W/m² | - |
| 1777985120 | 4.44° C | 71% | 1003.2 hPa | 0 mm | 0.89 m/s, 321° | 153 W/m² | - |
| 1777984517 | 3.89° C | 72% | 1003.2 hPa | 0 mm | 0.45 m/s, 86° | 127 W/m² | - |
| 1777983920 | 3.89° C | 72% | 1003.1 hPa | 0 mm | 0.89 m/s, 284° | 84 W/m² | - |
| 1777983317 | 3.33° C | 73% | 1003.1 hPa | 0 mm | 0.89 m/s, 205° | 91 W/m² | - |
| 1777982717 | 3.33° C | 75% | 1003 hPa | 0 mm | 0.45 m/s, 34° | 92 W/m² | - |
| 1777982118 | 2.78° C | 75% | 1002.9 hPa | 0 mm | 0.89 m/s, 248° | 69 W/m² | - |
| 1777981521 | 2.78° C | 75% | 1002.8 hPa | 0 mm | 1.34 m/s, 153° | 34 W/m² | - |
| 1777980919 | 2.78° C | 76% | 1002.8 hPa | 0 mm | 0.45 m/s, 131° | 29 W/m² | - |
| 1777980317 | 2.22° C | 75% | 1002.6 hPa | 0 mm | 0.45 m/s, 154° | 26 W/m² | - |
| 1777979718 | 2.22° C | 77% | 1002.5 hPa | 0 mm | 1.34 m/s, 144° | 18 W/m² | - |
| 1777979118 | 2.22° C | 77% | 1002.3 hPa | 0 mm | 0 m/s | 20 W/m² | - |
| 1777978520 | 1.67° C | 77% | 1002.2 hPa | 0 mm | 0.45 m/s, 283° | 10 W/m² | - |
| 1777977922 | 1.67° C | 80% | 1002.1 hPa | 0 mm | 0.89 m/s, 208° | 5 W/m² | - |
| 1777977321 | 1.11° C | 79% | 1002 hPa | 0 mm | 0.89 m/s, 117° | 3 W/m² | - |
| 1777976718 | 0.56° C | 81% | 1002 hPa | 0 mm | 0.89 m/s, 233° | 1 W/m² | - |
* Rain latest hour (hover to see other rain measurements)
** Current wind speed in m/s (hover to see current wind gust speed)